CZ-3B DEB, 40191

Orbit data source: Space-Track

CZ-3B DEB, 40191 is space debris in HEO originally from a launch on Mon, 19 Dec 2011 UTC launched from the Xichang Space Center, China (XSC). Debris objects in space refer to the collection of defunct objects orbiting the Earth. Examples of debris include non-operational satellites, rocket bodies, and fragments generated from explosions, collisions, or faulty payload assembly.

Loading next visibility...
Identifier
40191, 2011-077Q
Orbit
HEO
Country
Flag of CNCN / PRC
Related business
Manufacturer
CALT
Mission
Spacecraft
Bus & Motor
Unknown
Mass
Unknown
Launch date (UTC)
2011-12-19 (15 years ago)
Launch vehicle
Unknown
Launch site
Xichang Space Center, China (XSC)
Object type
Payload
Rocket body
Debris
Shape & HBR
Unknown shape, 0.2 m
Radar Cross Section
Medium (>0.1 m² and <1 m²)

Expand to show TLE details & history
Last TLE update: 4 days ago

TLE from 4 days ago
0 CZ-3B DEB
1 40191U 11077Q   26169.12913272  .00000849  00000-0  72554-2 0  9998
2 40191  26.1012 250.1249 7467967 206.5586  78.1704  1.95132336 79815
Epoch: 2026-06-18T03:05Z
TLE epoch observation values (Epoch: 2026-06-18T03:05:57.067Z)
Latitude
0.00029°
Longitude
-62.66789°
Altitude
29,705.34 km
Speed
2.713 km/s
True Right ascension
16h 40m 47s
True Declination
0° 00' 01"
Sunlit
Object was in daylight at epoch
Visualization orbit readout
Latitude
Unknown
Longitude
Unknown
Altitude
Unknown
Speed
Unknown
Apparent Right ascension
Unknown
Apparent Declination
Unknown
Sunlit
N/A
Visualization observer readout
Local Sidereal Time
21:37:10
Azimuth
Unknown
Elevation
Unknown
Doppler factor
Unknown
Orbital elements
Apogee altitude
40,881.245 km
Perigee altitude
472.249 km
Semi-major axis
27,054.884 km
Eccentricity
0.7468
Inclination
26.1012°
RAAN
250.1249°
Arg. of periapsis
206.5586°
True anomaly
153.47185°
Mean anomaly
78.1704°
Eccentric anomaly
116.47233°
Mean motion
0.48772 °/min
Orbital period
738.12 mins
BSTAR
0.0072554
Loading maneuver chart data...
Computing Atmospheric mass density...
Loading historical data...
Loading historical data...
Loading historical data...
Loading historical data...
Loading historical data...
Loading historical data...
Loading historical data...

Documentation

Showing up to 5 results
|